TimeMST,TemperatureF,Dew PointF,Humidity,Sea Level PressureIn,VisibilityMPH,Wind Direction,Wind SpeedMPH,Gust SpeedMPH,PrecipitationIn,Events,Conditions,WindDirDegrees,DateUTC
12:56 AM,24.1,19.9,84,30.09,10.0,WNW,9.2,-,N/A,,Overcast,300,2012-12-30 07:56:00
1:56 AM,23.0,19.9,88,30.09,10.0,WNW,9.2,-,N/A,,Overcast,290,2012-12-30 08:56:00
2:56 AM,23.0,19.9,88,30.11,10.0,WNW,6.9,-,N/A,,Overcast,300,2012-12-30 09:56:00
3:56 AM,23.0,19.9,88,30.12,10.0,WNW,6.9,-,0.00,,Overcast,290,2012-12-30 10:56:00
4:56 AM,23.0,17.1,78,30.11,10.0,West,4.6,-,N/A,,Overcast,280,2012-12-30 11:56:00
5:56 AM,19.9,14.0,78,30.12,10.0,WNW,5.8,-,N/A,,Overcast,290,2012-12-30 12:56:00
6:56 AM,19.9,12.9,74,30.12,10.0,NW,4.6,-,N/A,,Overcast,310,2012-12-30 13:56:00
7:56 AM,18.0,12.0,78,30.13,10.0,West,5.8,-,N/A,,Overcast,270,2012-12-30 14:56:00
8:56 AM,19.0,10.9,71,30.14,10.0,West,12.7,-,N/A,,Scattered Clouds,270,2012-12-30 15:56:00
9:56 AM,21.0,12.0,68,30.13,10.0,West,12.7,-,N/A,,Clear,270,2012-12-30 16:56:00
10:56 AM,21.9,12.9,68,30.12,10.0,WSW,10.4,-,N/A,,Clear,250,2012-12-30 17:56:00
11:56 AM,26.1,16.0,66,30.09,10.0,West,18.4,-,N/A,,Clear,260,2012-12-30 18:56:00
12:56 PM,26.1,16.0,66,30.08,10.0,West,18.4,-,N/A,,Clear,260,2012-12-30 19:56:00
1:56 PM,26.1,16.0,66,30.06,10.0,West,19.6,-,N/A,,Clear,260,2012-12-30 20:56:00
2:56 PM,25.0,15.1,66,30.07,10.0,West,20.7,-,N/A,,Clear,270,2012-12-30 21:56:00
3:56 PM,24.1,14.0,65,30.08,10.0,West,18.4,-,N/A,,Clear,260,2012-12-30 22:56:00
4:56 PM,23.0,12.9,65,30.09,10.0,West,17.3,-,N/A,,Clear,260,2012-12-30 23:56:00
5:56 PM,21.9,12.9,68,30.11,10.0,West,17.3,23.0,N/A,,Clear,260,2012-12-31 00:56:00
6:56 PM,23.0,12.9,65,30.10,10.0,West,18.4,27.6,N/A,,Scattered Clouds,270,2012-12-31 01:56:00
7:56 PM,23.0,12.9,65,30.10,10.0,West,20.7,-,N/A,,Overcast,260,2012-12-31 02:56:00
8:56 PM,21.9,12.0,66,30.10,10.0,West,18.4,-,N/A,,Mostly Cloudy,260,2012-12-31 03:56:00
9:56 PM,21.0,10.9,65,30.10,10.0,West,17.3,-,N/A,,Clear,260,2012-12-31 04:56:00
10:56 PM,21.0,10.9,65,30.09,10.0,West,20.7,-,N/A,,Clear,260,2012-12-31 05:56:00
11:56 PM,18.0,10.0,71,30.09,10.0,West,11.5,-,N/A,,Clear,280,2012-12-31 06:56:00